Regional Weather Roundup
Issued by NWS Little Rock, AR

Home | Current Version | Previous Version | Graphics & Text | Print | Product List | Glossary On
Versions: 1 2 3 4 5 6 7 8 9 10 11 12 13 14 15 16 17 18 19 20 21 22 23 24 25 26 27 28 29 30 31 32 33 34 35 36 37 38 39 40 41 42 43 44 45 46 47
000
ASUS44 KLZK 010405
RWRLZK

WEATHER ROUNDUP FOR ARKANSAS
NATIONAL WEATHER SERVICE LITTLE ROCK AR
1000 PM CST SAT FEB 28 2015

NOTE: "FAIR" INDICATES FEW OR NO CLOUDS BELOW 12,000 FEET WITH NO
SIGNIFICANT WEATHER AND/OR OBSTRUCTIONS TO VISIBILITY.

ARZ001-003-010-029-010500-
NORTHWEST ARKANSAS

CITY           SKY/WX    TMP DP  RH WIND       PRES   REMARKS
FAYETTEVILLE   MIX PCPN  29  29 100 NE3       30.35S FOG
FORT SMITH     FRZ RAIN  31  28  89 E6        30.40S FOG     WCI  25
HARRISON       FRZ RAIN  26  25  96 SE8       30.37S FOG     WCI  18
BENTONVILLE    CLOUDY    28  25  86 SE8       30.35S WCI  20
ROGERS         LGT SNOW  28  27  96 E8        30.35S FOG     WCI  20
SILOAM SPGS    CLOUDY    30  25  80 CALM      30.35F
HIGHFILL       MIX PCPN  29  27  92 E6        30.34S FOG     WCI  23
$$

ARZ004-005-016-010500-
NORTH CENTRAL ARKANSAS

CITY           SKY/WX    TMP DP  RH WIND       PRES   REMARKS
BATESVILLE     CLOUDY    28  23  80 CALM      30.44R
FLIPPIN        CLOUDY    27  21  80 CALM      30.41R
MTN HOME       MIX PCPN  26  25  96 CALM      30.40R FOG
$$

ARZ040-041-010500-
WEST CENTRAL ARKANSAS

CITY           SKY/WX    TMP DP  RH WIND       PRES   REMARKS
MENA           CLOUDY    34  32  93 E3        30.35S
MOUNT IDA      LGT RAIN  33  30  88 NE3       30.34S FOG
$$

ARZ009-017-025-026-028-010500-
NORTHEAST ARKANSAS

CITY           SKY/WX    TMP DP  RH WIND       PRES   REMARKS
CORNING        LGT RAIN  30  25  80 NE7       30.45S WCI  23
JONESBORO      CLOUDY    30  23  75 NE8       30.42F WCI  22
NEWPORT        CLOUDY    30  25  82 N13       30.45S WCI  20
WALNUT RIDGE   MOCLDY    30  21  69 N8        30.44F WCI  23
BLYTHEVILLE    CLOUDY    33  26  75 N12       30.43F WCI  24
$$

ARZ022-023-033-042-044-010500-
CENTRAL ARKANSAS

CITY           SKY/WX    TMP DP  RH WIND       PRES   REMARKS
LITTLE ROCK    CLOUDY    35  23  61 NE6       30.42R WCI  30
N LITTLE ROCK  CLOUDY    33  27  79 NE8       30.42R WCI  25
JACKSONVILLE   CLOUDY    32  24  72 N7        30.41R WCI  26
SEARCY         CLOUDY    31  25  78 N9        30.43F WCI  23
HOT SPRINGS    LGT RAIN  35  26  69 E8        30.37S WCI  29
RUSSELLVILLE   CLOUDY    33  28  81 E6        30.38F WCI  28
CLINTON        CLOUDY    32  28  86 CALM      30.44R FOG
$$

ARZ036-010500-
EAST ARKANSAS

CITY           SKY/WX    TMP DP  RH WIND       PRES   REMARKS
WEST MEMPHIS   CLOUDY    33  27  78 N8        30.41R WCI  26
$$

ARZ050-053-066-070-073-010500-
SOUTHWEST ARKANSAS

CITY           SKY/WX    TMP DP  RH WIND       PRES   REMARKS
ARKADELPHIA    MIX PCPN  37  28  70 NE7       30.39S
CAMDEN         CLOUDY    37  27  65 MISG      30.38R
TEXARKANA      CLOUDY    38  29  70 NE7       30.34R
EL DORADO      CLOUDY    40  29  64 NE7       30.35S
DE QUEEN       CLOUDY    35  32  88 CALM      30.35R FOG
$$

ARZ056-057-069-010500-
SOUTHEAST ARKANSAS

CITY           SKY/WX    TMP DP  RH WIND       PRES   REMARKS
PINE BLUFF     CLOUDY    35  27  72 N8        30.39S WCI  29
STUTTGART      CLOUDY    34  25  69 N12       30.40S WCI  25
MONTICELLO     CLOUDY    39  30  70 NE7       30.35S

$$




USA.gov is the U.S. government's official web portal to all federal, state and local government web resources and services.